When you browse on this site, cookies collect data to enhance your experience and personalize the content and advertising you see.
Visit our Privacy Policy to learn more. By continuing to use the site, you agree to this use of cookies and data.
  • In Romania
  • List of Countries
  • For 7 days
  • Water Temperature
  • Weather Map
  • Weather Widgets
  • user-avatar
    Login

    Hourly Weather Aguilas

    Today, 13 November, Wednesday

    Time Temperature Precipitation Wind Pressure Humidity
    00:00 +13°C° 0 mm 3 mps 758 mmHg 57%
    01:00 +13°C° 0 mm 3 mps 757 mmHg 56%
    02:00 +14°C° 0 mm 4 mps 757 mmHg 55%
    03:00 +14°C° 0 mm 4 mps 756 mmHg 54%
    04:00 +14°C° 0 mm 4 mps 756 mmHg 56%
    05:00 +14°C° 0 mm 5 mps 756 mmHg 58%
    06:00 +14°C° 0 mm 6 mps 756 mmHg 59%
    07:00 +15°C° 0 mm 6 mps 756 mmHg 58%
    08:00 +17°C° 0 mm 7 mps 756 mmHg 56%
    09:00 +18°C° 0 mm 8 mps 756 mmHg 55%
    10:00 +20°C° 0 mm 8 mps 757 mmHg 52%
    11:00 +21°C° 0 mm 9 mps 757 mmHg 48%
    12:00 +22°C° 0 mm 9 mps 757 mmHg 45%
    13:00 +22°C° 0 mm 8 mps 757 mmHg 46%
    14:00 +22°C° 0 mm 8 mps 757 mmHg 46%
    15:00 +22°C° 0 mm 7 mps 757 mmHg 46%
    16:00 +21°C° 0 mm 6 mps 757 mmHg 51%
    17:00 +20°C° 0 mm 5 mps 758 mmHg 55%
    18:00 +19°C° 0 mm 4 mps 758 mmHg 60%
    19:00 +18°C° 0 mm 3 mps 758 mmHg 63%
    20:00 +18°C° 0 mm 3 mps 758 mmHg 66%
    21:00 +17°C° 0 mm 3 mps 759 mmHg 69%
    22:00 +17°C° 0 mm 3 mps 758 mmHg 69%
    23:00 +17°C° 0 mm 3 mps 758 mmHg 68%

    Tomorrow, 14 November, Thursday

    Time Temperature Precipitation Wind Pressure Humidity
    00:00 +17°C° 0 mm 3 mps 757 mmHg 68%
    01:00 +16°C° 0 mm 3 mps 757 mmHg 69%
    02:00 +16°C° 0 mm 3 mps 756 mmHg 71%
    03:00 +15°C° 0 mm 2 mps 755 mmHg 73%
    04:00 +14°C° 0 mm 3 mps 755 mmHg 73%
    05:00 +14°C° 0 mm 3 mps 755 mmHg 73%
    06:00 +14°C° 0 mm 4 mps 754 mmHg 72%
    07:00 +15°C° 0 mm 5 mps 754 mmHg 64%
    08:00 +16°C° 0 mm 5 mps 754 mmHg 57%
    09:00 +17°C° 0 mm 6 mps 754 mmHg 49%
    10:00 +17°C° 0 mm 7 mps 754 mmHg 46%
    11:00 +18°C° 0 mm 8 mps 753 mmHg 44%
    12:00 +18°C° 0 mm 9 mps 753 mmHg 42%
    13:00 +17°C° 0 mm 10 mps 753 mmHg 45%
    14:00 +16°C° 0 mm 10 mps 753 mmHg 49%
    15:00 +14°C° 0 mm 11 mps 753 mmHg 53%
    16:00 +13°C° 0 mm 12 mps 753 mmHg 50%
    17:00 +12°C° 0 mm 12 mps 753 mmHg 48%
    18:00 +12°C° 0 mm 13 mps 753 mmHg 46%
    19:00 +10°C° 0 mm 12 mps 753 mmHg 47%
    20:00 +10°C° 0 mm 12 mps 753 mmHg 48%
    21:00 +11°C° 0 mm 11 mps 753 mmHg 49%
    22:00 +10°C° 0 mm 12 mps 753 mmHg 49%
    23:00 +10°C° 0 mm 12 mps 753 mmHg 50%

    Day after tomorrow, 15 November, Friday

    Time Temperature Precipitation Wind Pressure Humidity
    00:00 +10°C° 0 mm 13 mps 753 mmHg 50%
    01:00 +9°C° 0 mm 11 mps 753 mmHg 50%
    02:00 +10°C° 0 mm 9 mps 753 mmHg 50%
    03:00 +9°C° 0 mm 7 mps 754 mmHg 50%
    04:00 +9°C° 0 mm 6 mps 754 mmHg 53%
    05:00 +8°C° 0 mm 4 mps 754 mmHg 56%
    06:00 +9°C° 0 mm 2 mps 754 mmHg 59%
    07:00 +9°C° 0 mm 5 mps 755 mmHg 60%
    08:00 +10°C° 0 mm 6 mps 755 mmHg 55%
    09:00 +11°C° 0 mm 6 mps 755 mmHg 50%
    10:00 +13°C° 0 mm 6 mps 755 mmHg 45%
    11:00 +13°C° 0 mm 5 mps 755 mmHg 40%
    12:00 +14°C° 0 mm 5 mps 755 mmHg 36%
    13:00 +14°C° 0 mm 4 mps 755 mmHg 34%
    14:00 +14°C° 0 mm 3 mps 755 mmHg 33%
    15:00 +16°C° 0 mm 3 mps 754 mmHg 31%
    16:00 +13°C° 0.1 mm 3 mps 755 mmHg 40%
    17:00 +12°C° 0.1 mm 3 mps 755 mmHg 48%
    18:00 +11°C° 0.1 mm 3 mps 755 mmHg 57%
    19:00 +11°C° 0.2 mm 3 mps 756 mmHg 57%
    20:00 +10°C° 0.2 mm 3 mps 756 mmHg 57%
    21:00 +10°C° 0.2 mm 3 mps 756 mmHg 58%
    22:00 +10°C° 0.2 mm 3 mps 756 mmHg 57%
    23:00 +9°C° 0.2 mm 3 mps 757 mmHg 57%

    16 November, Saturday

    Time Temperature Precipitation Wind Pressure Humidity
    00:00 +9°C° 0.2 mm 2 mps 757 mmHg 57%
    01:00 +9°C° 0 mm 3 mps 757 mmHg 57%
    02:00 +7°C° 0 mm 4 mps 756 mmHg 57%
    03:00 +7°C° 0 mm 5 mps 756 mmHg 57%
    04:00 +7°C° 0 mm 5 mps 757 mmHg 58%
    05:00 +7°C° 0 mm 5 mps 757 mmHg 59%
    06:00 +6°C° 0 mm 5 mps 757 mmHg 60%
    07:00 +8°C° 0 mm 5 mps 758 mmHg 55%
    08:00 +9°C° 0 mm 5 mps 759 mmHg 50%
    09:00 +12°C° 0 mm 5 mps 759 mmHg 45%
    10:00 +13°C° 0 mm 5 mps 759 mmHg 41%
    11:00 +14°C° 0 mm 5 mps 759 mmHg 36%
    12:00 +15°C° 0 mm 5 mps 759 mmHg 32%
    13:00 +15°C° 0 mm 5 mps 759 mmHg 31%
    14:00 +17°C° 0 mm 4 mps 759 mmHg 31%
    15:00 +17°C° 0 mm 4 mps 759 mmHg 30%
    16:00 +15°C° 0 mm 4 mps 760 mmHg 35%
    17:00 +13°C° 0 mm 4 mps 760 mmHg 40%
    18:00 +12°C° 0 mm 4 mps 761 mmHg 44%
    19:00 +11°C° 0 mm 3 mps 761 mmHg 46%
    20:00 +11°C° 0 mm 3 mps 762 mmHg 48%
    21:00 +10°C° 0 mm 3 mps 762 mmHg 50%
    22:00 +10°C° 0 mm 3 mps 762 mmHg 51%
    23:00 +10°C° 0 mm 3 mps 762 mmHg 52%

    17 November, Sunday

    Time Temperature Precipitation Wind Pressure Humidity
    00:00 +9°C° 0 mm 3 mps 762 mmHg 54%
    01:00 +9°C° 0 mm 3 mps 761 mmHg 55%
    02:00 +9°C° 0 mm 3 mps 761 mmHg 55%
    03:00 +8°C° 0 mm 4 mps 760 mmHg 56%
    04:00 +7°C° 0 mm 4 mps 760 mmHg 56%
    05:00 +7°C° 0 mm 4 mps 760 mmHg 56%
    06:00 +7°C° 0 mm 4 mps 760 mmHg 56%
    07:00 +10°C° 0 mm 4 mps 760 mmHg 51%
    08:00 +11°C° 0 mm 4 mps 760 mmHg 46%
    09:00 +13°C° 0 mm 5 mps 760 mmHg 41%
    10:00 +15°C° 0 mm 5 mps 760 mmHg 41%
    11:00 +16°C° 0 mm 6 mps 760 mmHg 41%
    12:00 +19°C° 0 mm 6 mps 759 mmHg 41%
    13:00 +19°C° 0 mm 6 mps 759 mmHg 43%
    14:00 +19°C° 0 mm 6 mps 758 mmHg 46%
    15:00 +19°C° 0 mm 6 mps 758 mmHg 48%
    16:00 +17°C° 0 mm 6 mps 757 mmHg 53%
    17:00 +16°C° 0 mm 5 mps 757 mmHg 58%
    18:00 +15°C° 0 mm 4 mps 757 mmHg 63%
    19:00 +15°C° 0.1 mm 4 mps 757 mmHg 65%
    20:00 +15°C° 0.1 mm 5 mps 757 mmHg 67%
    21:00 +15°C° 0.1 mm 5 mps 757 mmHg 69%
    22:00 +14°C° 0.1 mm 6 mps 757 mmHg 66%
    23:00 +12°C° 0.1 mm 7 mps 757 mmHg 63%

    18 November, Monday

    Time Temperature Precipitation Wind Pressure Humidity
    00:00 +11°C° 0.1 mm 8 mps 757 mmHg 60%
    01:00 +10°C° 0 mm 7 mps 757 mmHg 61%
    02:00 +10°C° 0 mm 6 mps 757 mmHg 62%
    03:00 +10°C° 0 mm 4 mps 757 mmHg 63%
    04:00 +9°C° 0 mm 5 mps 758 mmHg 64%
    05:00 +9°C° 0 mm 5 mps 758 mmHg 64%
    06:00 +9°C° 0 mm 6 mps 758 mmHg 65%
    07:00 +10°C° 0 mm 6 mps 759 mmHg 60%
    08:00 +11°C° 0 mm 7 mps 760 mmHg 56%
    09:00 +14°C° 0 mm 7 mps 760 mmHg 51%
    10:00 +15°C° 0 mm 7 mps 760 mmHg 47%
    11:00 +16°C° 0 mm 7 mps 760 mmHg 43%
    12:00 +17°C° 0 mm 7 mps 761 mmHg 39%
    13:00 +17°C° 0 mm 6 mps 760 mmHg 39%
    14:00 +17°C° 0 mm 6 mps 760 mmHg 38%
    15:00 +17°C° 0 mm 5 mps 760 mmHg 38%
    16:00 +16°C° 0 mm 5 mps 761 mmHg 41%
    17:00 +14°C° 0 mm 4 mps 761 mmHg 45%
    18:00 +13°C° 0 mm 3 mps 761 mmHg 48%
    19:00 +12°C° 0 mm 3 mps 762 mmHg 51%
    20:00 +11°C° 0 mm 3 mps 762 mmHg 54%
    21:00 +11°C° 0 mm 3 mps 762 mmHg 57%
    22:00 +10°C° 0 mm 3 mps 762 mmHg 58%
    23:00 +10°C° 0 mm 2 mps 762 mmHg 59%
    Show more